Aeroporto :
LOGIN :

Iscrizione | Disclaimer

   EN    FR    IT 

 










Sommario :    VFR   VFR Marginale   IFR   IFR Intensivo   IFR Molto Intensivo
Visibilità : 
Base nubi : 
>= 8 km
>= 3000ft
5 / 8 km
1000 / 3000 ft
1500m / 5 km
500 / 1000 ft
800 / 1500m
200 / 500 ft
< 800m
< 200 ft
Simboli :   Temporali  Nebbia  Neve Forte  Precipitazioni Forti  Vento > 20 kt
SIGMETs :   Varie  Temporali  Ghiacco  Turbolenza  Onda orograficha  Ceneri Vulcaniche







- Altitudine del aeroporto : 408 ft
- Codice IATA : FKB


EDSB - Karlsruhe Baden Baden

ULTIMO METAR :
  • 241520Z 05015KT 9999 SCT025 11/06 Q1024

METARs OBSOLETI :
  • 241450Z 04016KT 9000 SCT025 12/07 Q1024
  • 241420Z 04016KT 9000 SCT025 11/06 Q1024
  • 241350Z 04017KT 9999 SCT027 11/06 Q1024
  • 241320Z 04018KT 9000 SCT023 12/07 Q1024
  • 241250Z 05020KT 9000 SCT027 12/07 Q1024

TAF TAF EDSB
Valido dal 24 a 12 ore il 25 a 12 ore UTC


241100Z 2412/2512 02013KT 9999 FEW040
PROB30
TEMPO 2412/2417 04015G25KT
BECMG 2507/2510 03015G25KT
Nessun NOTAM noto per questo aeroporto.



MetMap, La meteo Aeronautica in un colpo d'occhio ! - Copyright ORBIFLY Dicembre 2007 - Disclaimer

ORBIFLY MET'MAP TEAM :

Programmazione e sviluppo : Alexandra Zaïnal
Concezione e sviluppo : Baudouin d'Aumeries
Co-Programmazione e sviluppo : Marc-Olivier Méhu
Supporto tecnico e logistico : Manuel Goepfert
Aiuto per la traduzione : Arnaldo La Scala

Contatto : metmap@orbifly.com




FONTI E CREDITI :

   NOAA